Location: Brown Observing Site
(43.4354°N, 116.3366°W)
Time: 07:24:29
(UTC-06:00)

Envisat - Pass Details

Date: 10 October 2020
Orbit: 764 x 766 km, 98.1° (Epoch: 26 October)

Event Time Altitude Azimuth Distance (km) Brightness Sun altitude
Rises 06:33:02 0° 30° (NNE) 3,238 6.8 -15.5°
Reaches altitude 10° 06:36:13 10° 51° (NE) 2,306 6.3 -14.9°
Maximum altitude 06:39:24 17° 90° (E) 1,883 6.2 -14.3°
Drops below altitude 10° 06:42:34 10° 129° (SE) 2,295 6.2 -13.8°
Sets 06:45:42 0° 150° (SSE) 3,215 6.6 -13.2°
